Location: Bakhuizen
(52.8696°N, 5.4575°E)
Time: 09:20:03
(UTC+00:00)

Cosmos 1515 - Pass Details

Date: 11 May 2021
Orbit: 506 x 513 km, 82.5° (Epoch: 15 June)

Event Time Altitude Azimuth Distance (km) Brightness Sun altitude
Exits shadow 22:04:31 35° 142° (SE) 835 4.2 -16.4°
Maximum altitude 22:05:38 47° 95° (E) 680 4.0 -16.4°
Drops below altitude 10° 22:09:18 10° 21° (NNE) 1,737 7.0 -16.6°
Sets 22:11:29 0° 16° (NNE) 2,629 8.2 -16.8°
